#datetime,building,power
2024-02-13T00:00:00,axn,26.80
2024-02-13T00:01:00,axn,26.98
2024-02-13T00:02:00,axn,26.96
2024-02-13T00:03:00,axn,27.25
2024-02-13T00:04:00,axn,27.40
2024-02-13T00:05:00,axn,27.48
2024-02-13T00:06:00,axn,26.97
2024-02-13T00:07:00,axn,26.94
2024-02-13T00:08:00,axn,26.67
2024-02-13T00:09:00,axn,26.86
2024-02-13T00:10:00,axn,27.01
2024-02-13T00:11:00,axn,26.88
2024-02-13T00:12:00,axn,26.68
2024-02-13T00:13:00,axn,27.07
2024-02-13T00:14:00,axn,26.58
2024-02-13T00:15:00,axn,26.65
2024-02-13T00:16:00,axn,26.82
2024-02-13T00:17:00,axn,26.65
2024-02-13T00:18:00,axn,26.65
2024-02-13T00:19:00,axn,26.53
2024-02-13T00:20:00,axn,26.58
2024-02-13T00:21:00,axn,26.85
2024-02-13T00:22:00,axn,26.80
2024-02-13T00:23:00,axn,26.63
2024-02-13T00:24:00,axn,26.69
2024-02-13T00:25:00,axn,26.64
2024-02-13T00:26:00,axn,26.59
2024-02-13T00:27:00,axn,26.60
2024-02-13T00:28:00,axn,27.06
2024-02-13T00:29:00,axn,26.77
2024-02-13T00:30:00,axn,26.68
2024-02-13T00:31:00,axn,26.77
2024-02-13T00:32:00,axn,27.09
2024-02-13T00:33:00,axn,26.94
2024-02-13T00:34:00,axn,27.07
2024-02-13T00:35:00,axn,26.60
2024-02-13T00:36:00,axn,26.56
2024-02-13T00:37:00,axn,26.47
2024-02-13T00:38:00,axn,26.53
2024-02-13T00:39:00,axn,27.23
2024-02-13T00:40:00,axn,26.69
2024-02-13T00:41:00,axn,26.92
2024-02-13T00:42:00,axn,26.83
2024-02-13T00:43:00,axn,26.58
2024-02-13T00:44:00,axn,26.81
2024-02-13T00:45:00,axn,26.60
2024-02-13T00:46:00,axn,26.57
2024-02-13T00:47:00,axn,26.48
2024-02-13T00:48:00,axn,26.56
2024-02-13T00:49:00,axn,26.60
2024-02-13T00:50:00,axn,26.82
2024-02-13T00:51:00,axn,26.69
2024-02-13T00:52:00,axn,27.83
2024-02-13T00:53:00,axn,26.99
2024-02-13T00:54:00,axn,26.74
2024-02-13T00:55:00,axn,26.98
2024-02-13T00:56:00,axn,26.66
2024-02-13T00:57:00,axn,26.83
2024-02-13T00:58:00,axn,26.78
2024-02-13T00:59:00,axn,26.86
2024-02-13T01:00:00,axn,26.91
2024-02-13T01:01:00,axn,27.26
2024-02-13T01:02:00,axn,26.91
2024-02-13T01:03:00,axn,26.78
2024-02-13T01:04:00,axn,26.88
2024-02-13T01:05:00,axn,26.86
2024-02-13T01:06:00,axn,26.68
2024-02-13T01:07:00,axn,29.52
2024-02-13T01:08:00,axn,41.69
2024-02-13T01:09:00,axn,41.50
2024-02-13T01:10:00,axn,41.26
2024-02-13T01:11:00,axn,41.22
2024-02-13T01:12:00,axn,41.13
2024-02-13T01:13:00,axn,40.92
2024-02-13T01:14:00,axn,26.76
2024-02-13T01:15:00,axn,26.79
2024-02-13T01:16:00,axn,26.76
2024-02-13T01:17:00,axn,26.78
2024-02-13T01:18:00,axn,26.76
2024-02-13T01:19:00,axn,26.73
2024-02-13T01:20:00,axn,26.95
2024-02-13T01:21:00,axn,26.91
2024-02-13T01:22:00,axn,26.91
2024-02-13T01:23:00,axn,27.03
2024-02-13T01:24:00,axn,27.10
2024-02-13T01:25:00,axn,26.89
2024-02-13T01:26:00,axn,26.77
2024-02-13T01:27:00,axn,26.93
2024-02-13T01:28:00,axn,26.93
2024-02-13T01:29:00,axn,27.04
2024-02-13T01:30:00,axn,26.99
2024-02-13T01:31:00,axn,26.86
2024-02-13T01:32:00,axn,26.94
2024-02-13T01:33:00,axn,26.87
2024-02-13T01:34:00,axn,26.83
2024-02-13T01:35:00,axn,26.90
2024-02-13T01:36:00,axn,27.30
2024-02-13T01:37:00,axn,27.02
2024-02-13T01:38:00,axn,27.24
2024-02-13T01:39:00,axn,27.12
2024-02-13T01:40:00,axn,27.38
2024-02-13T01:41:00,axn,27.17
2024-02-13T01:42:00,axn,27.02
2024-02-13T01:43:00,axn,27.20
2024-02-13T01:44:00,axn,27.15
2024-02-13T01:45:00,axn,27.06
2024-02-13T01:46:00,axn,27.07
2024-02-13T01:47:00,axn,27.10
2024-02-13T01:48:00,axn,26.95
2024-02-13T01:49:00,axn,27.08
2024-02-13T01:50:00,axn,27.30
2024-02-13T01:51:00,axn,27.51
2024-02-13T01:52:00,axn,27.03
2024-02-13T01:53:00,axn,26.91
2024-02-13T01:54:00,axn,27.59
2024-02-13T01:55:00,axn,32.44
2024-02-13T01:56:00,axn,28.05
2024-02-13T01:57:00,axn,27.72
2024-02-13T01:58:00,axn,27.06
2024-02-13T01:59:00,axn,27.24
2024-02-13T02:00:00,axn,37.74
2024-02-13T02:01:00,axn,37.97
2024-02-13T02:02:00,axn,37.73
2024-02-13T02:03:00,axn,37.65
2024-02-13T02:04:00,axn,27.28
2024-02-13T02:05:00,axn,27.05
2024-02-13T02:06:00,axn,27.10
2024-02-13T02:07:00,axn,27.23
2024-02-13T02:08:00,axn,27.29
2024-02-13T02:09:00,axn,27.31
2024-02-13T02:10:00,axn,30.08
2024-02-13T02:11:00,axn,30.14
2024-02-13T02:12:00,axn,27.46
2024-02-13T02:13:00,axn,27.62
2024-02-13T02:14:00,axn,27.68
2024-02-13T02:15:00,axn,27.21
2024-02-13T02:16:00,axn,27.16
2024-02-13T02:17:00,axn,27.15
2024-02-13T02:18:00,axn,26.90
2024-02-13T02:19:00,axn,27.08
2024-02-13T02:20:00,axn,26.86
2024-02-13T02:21:00,axn,27.51
2024-02-13T02:22:00,axn,27.57
2024-02-13T02:23:00,axn,27.30
2024-02-13T02:24:00,axn,26.62
2024-02-13T02:25:00,axn,26.88
2024-02-13T02:26:00,axn,27.20
2024-02-13T02:27:00,axn,26.93
2024-02-13T02:28:00,axn,27.09
2024-02-13T02:29:00,axn,26.83
2024-02-13T02:30:00,axn,26.87
2024-02-13T02:31:00,axn,26.69
2024-02-13T02:32:00,axn,26.62
2024-02-13T02:33:00,axn,26.81
2024-02-13T02:34:00,axn,26.69
2024-02-13T02:35:00,axn,26.81
2024-02-13T02:36:00,axn,26.63
2024-02-13T02:37:00,axn,26.90
2024-02-13T02:38:00,axn,26.48
2024-02-13T02:39:00,axn,26.61
2024-02-13T02:40:00,axn,26.90
2024-02-13T02:41:00,axn,26.58
2024-02-13T02:42:00,axn,26.63
2024-02-13T02:43:00,axn,26.89
2024-02-13T02:44:00,axn,26.93
2024-02-13T02:45:00,axn,33.07
2024-02-13T02:46:00,axn,33.45
2024-02-13T02:47:00,axn,33.02
2024-02-13T02:48:00,axn,27.04
2024-02-13T02:49:00,axn,26.84
2024-02-13T02:50:00,axn,27.04
2024-02-13T02:51:00,axn,27.08
2024-02-13T02:52:00,axn,27.10
2024-02-13T02:53:00,axn,26.96
2024-02-13T02:54:00,axn,26.96
2024-02-13T02:55:00,axn,27.17
2024-02-13T02:56:00,axn,27.04
2024-02-13T02:57:00,axn,26.83
2024-02-13T02:58:00,axn,26.94
2024-02-13T02:59:00,axn,27.10
2024-02-13T03:00:00,axn,27.29
2024-02-13T03:01:00,axn,27.01
2024-02-13T03:02:00,axn,27.08
2024-02-13T03:03:00,axn,27.00
2024-02-13T03:04:00,axn,27.12
2024-02-13T03:05:00,axn,27.32
2024-02-13T03:06:00,axn,26.30
2024-02-13T03:07:00,axn,26.49
2024-02-13T03:08:00,axn,26.58
2024-02-13T03:09:00,axn,26.55
2024-02-13T03:10:00,axn,26.88
2024-02-13T03:11:00,axn,26.77
2024-02-13T03:12:00,axn,26.67
2024-02-13T03:13:00,axn,26.58
2024-02-13T03:14:00,axn,26.55
2024-02-13T03:15:00,axn,26.58
2024-02-13T03:16:00,axn,26.57
2024-02-13T03:17:00,axn,27.26
2024-02-13T03:18:00,axn,26.67
2024-02-13T03:19:00,axn,31.46
2024-02-13T03:20:00,axn,26.28
2024-02-13T03:21:00,axn,26.21
2024-02-13T03:22:00,axn,26.52
2024-02-13T03:23:00,axn,26.44
2024-02-13T03:24:00,axn,26.65
2024-02-13T03:25:00,axn,26.31
2024-02-13T03:26:00,axn,26.39
2024-02-13T03:27:00,axn,26.42
2024-02-13T03:28:00,axn,26.66
2024-02-13T03:29:00,axn,26.39
2024-02-13T03:30:00,axn,26.65
2024-02-13T03:31:00,axn,26.26
2024-02-13T03:32:00,axn,26.56
2024-02-13T03:33:00,axn,26.20
2024-02-13T03:34:00,axn,26.34
2024-02-13T03:35:00,axn,26.35
2024-02-13T03:36:00,axn,26.32
2024-02-13T03:37:00,axn,26.20
2024-02-13T03:38:00,axn,25.96
2024-02-13T03:39:00,axn,25.94
2024-02-13T03:40:00,axn,26.26
2024-02-13T03:41:00,axn,26.58
2024-02-13T03:42:00,axn,26.67
2024-02-13T03:43:00,axn,26.63
2024-02-13T03:44:00,axn,26.79
2024-02-13T03:45:00,axn,26.62
2024-02-13T03:46:00,axn,26.62
2024-02-13T03:47:00,axn,26.47
2024-02-13T03:48:00,axn,26.95
2024-02-13T03:49:00,axn,26.67
2024-02-13T03:50:00,axn,26.88
2024-02-13T03:51:00,axn,26.89
2024-02-13T03:52:00,axn,26.77
2024-02-13T03:53:00,axn,26.98
2024-02-13T03:54:00,axn,26.73
2024-02-13T03:55:00,axn,27.26
2024-02-13T03:56:00,axn,26.63
2024-02-13T03:57:00,axn,26.56
2024-02-13T03:58:00,axn,26.50
2024-02-13T03:59:00,axn,26.44
2024-02-13T04:00:00,axn,26.32
2024-02-13T04:01:00,axn,26.73
2024-02-13T04:02:00,axn,26.68
2024-02-13T04:03:00,axn,26.74
2024-02-13T04:04:00,axn,26.60
2024-02-13T04:05:00,axn,26.34
2024-02-13T04:06:00,axn,26.33
2024-02-13T04:07:00,axn,26.12
2024-02-13T04:08:00,axn,26.63
2024-02-13T04:09:00,axn,26.70
2024-02-13T04:10:00,axn,26.10
2024-02-13T04:11:00,axn,26.45
2024-02-13T04:12:00,axn,26.51
2024-02-13T04:13:00,axn,26.40
2024-02-13T04:14:00,axn,43.40
2024-02-13T04:15:00,axn,27.22
2024-02-13T04:16:00,axn,26.85
2024-02-13T04:17:00,axn,26.90
2024-02-13T04:18:00,axn,26.78
2024-02-13T04:19:00,axn,26.78
2024-02-13T04:20:00,axn,26.84
2024-02-13T04:21:00,axn,26.87
2024-02-13T04:22:00,axn,26.73
2024-02-13T04:23:00,axn,26.92
2024-02-13T04:24:00,axn,26.81
2024-02-13T04:25:00,axn,26.89
2024-02-13T04:26:00,axn,26.58
2024-02-13T04:27:00,axn,26.57
2024-02-13T04:28:00,axn,26.83
2024-02-13T04:29:00,axn,26.72
2024-02-13T04:30:00,axn,26.82
2024-02-13T04:31:00,axn,26.73
2024-02-13T04:32:00,axn,27.54
2024-02-13T04:33:00,axn,26.86
2024-02-13T04:34:00,axn,26.91
2024-02-13T04:35:00,axn,26.90
2024-02-13T04:36:00,axn,27.06
2024-02-13T04:37:00,axn,26.77
2024-02-13T04:38:00,axn,27.97
2024-02-13T04:39:00,axn,27.31
2024-02-13T04:40:00,axn,27.80
2024-02-13T04:41:00,axn,27.81
2024-02-13T04:42:00,axn,28.53
2024-02-13T04:43:00,axn,28.09
2024-02-13T04:44:00,axn,28.22
2024-02-13T04:45:00,axn,28.21
2024-02-13T04:46:00,axn,28.32
2024-02-13T04:47:00,axn,27.98
2024-02-13T04:48:00,axn,27.70
2024-02-13T04:49:00,axn,27.76
2024-02-13T04:50:00,axn,27.67
2024-02-13T04:51:00,axn,27.54
2024-02-13T04:52:00,axn,27.66
2024-02-13T04:53:00,axn,27.53
2024-02-13T04:54:00,axn,27.45
2024-02-13T04:55:00,axn,27.56
2024-02-13T04:56:00,axn,27.34
2024-02-13T04:57:00,axn,28.12
2024-02-13T04:58:00,axn,27.90
2024-02-13T04:59:00,axn,27.82
2024-02-13T05:00:00,axn,27.81
2024-02-13T05:01:00,axn,26.10
2024-02-13T05:02:00,axn,26.58
2024-02-13T05:03:00,axn,26.29
2024-02-13T05:04:00,axn,25.95
2024-02-13T05:05:00,axn,26.01
2024-02-13T05:06:00,axn,25.77
2024-02-13T05:07:00,axn,26.11
2024-02-13T05:08:00,axn,25.81
2024-02-13T05:09:00,axn,26.12
2024-02-13T05:10:00,axn,26.28
2024-02-13T05:11:00,axn,25.76
2024-02-13T05:12:00,axn,25.70
2024-02-13T05:13:00,axn,25.81
2024-02-13T05:14:00,axn,25.81
2024-02-13T05:15:00,axn,25.69
2024-02-13T05:16:00,axn,25.60
2024-02-13T05:17:00,axn,25.71
2024-02-13T05:18:00,axn,26.03
2024-02-13T05:19:00,axn,26.50
2024-02-13T05:20:00,axn,26.84
2024-02-13T05:21:00,axn,26.97
2024-02-13T05:22:00,axn,27.01
2024-02-13T05:23:00,axn,27.59
2024-02-13T05:24:00,axn,27.51
2024-02-13T05:25:00,axn,27.58
2024-02-13T05:26:00,axn,29.50
2024-02-13T05:27:00,axn,29.33
2024-02-13T05:28:00,axn,32.97
2024-02-13T05:29:00,axn,32.37
2024-02-13T05:30:00,axn,29.64
2024-02-13T05:31:00,axn,30.08
2024-02-13T05:32:00,axn,30.30
2024-02-13T05:33:00,axn,30.06
2024-02-13T05:34:00,axn,30.41
2024-02-13T05:35:00,axn,30.09
2024-02-13T05:36:00,axn,30.13
2024-02-13T05:37:00,axn,30.04
2024-02-13T05:38:00,axn,30.02
2024-02-13T05:39:00,axn,29.97
2024-02-13T05:40:00,axn,29.88
2024-02-13T05:41:00,axn,30.14
2024-02-13T05:42:00,axn,29.72
2024-02-13T05:43:00,axn,29.73
2024-02-13T05:44:00,axn,29.78
2024-02-13T05:45:00,axn,29.73
2024-02-13T05:46:00,axn,29.70
2024-02-13T05:47:00,axn,29.64
2024-02-13T05:48:00,axn,29.44
2024-02-13T05:49:00,axn,29.86
2024-02-13T05:50:00,axn,29.42
2024-02-13T05:51:00,axn,29.80
2024-02-13T05:52:00,axn,29.35
2024-02-13T05:53:00,axn,29.47
2024-02-13T05:54:00,axn,29.33
2024-02-13T05:55:00,axn,29.60
2024-02-13T05:56:00,axn,29.89
2024-02-13T05:57:00,axn,29.32
2024-02-13T05:58:00,axn,29.32
2024-02-13T05:59:00,axn,30.01
2024-02-13T06:00:00,axn,29.17
2024-02-13T06:01:00,axn,29.27
2024-02-13T06:02:00,axn,29.53
2024-02-13T06:03:00,axn,29.44
2024-02-13T06:04:00,axn,29.38
2024-02-13T06:05:00,axn,29.75
2024-02-13T06:06:00,axn,29.25
2024-02-13T06:07:00,axn,29.29
2024-02-13T06:08:00,axn,28.87
2024-02-13T06:09:00,axn,28.88
2024-02-13T06:10:00,axn,28.91
2024-02-13T06:11:00,axn,28.85
2024-02-13T06:12:00,axn,28.85
2024-02-13T06:13:00,axn,28.82
2024-02-13T06:14:00,axn,28.68
2024-02-13T06:15:00,axn,28.62
2024-02-13T06:16:00,axn,28.61
2024-02-13T06:17:00,axn,28.54
2024-02-13T06:18:00,axn,28.30
2024-02-13T06:19:00,axn,31.01
2024-02-13T06:20:00,axn,34.88
2024-02-13T06:21:00,axn,35.69
2024-02-13T06:22:00,axn,34.27
2024-02-13T06:23:00,axn,33.96
2024-02-13T06:24:00,axn,35.13
2024-02-13T06:25:00,axn,35.90
2024-02-13T06:26:00,axn,36.00
2024-02-13T06:27:00,axn,35.78
2024-02-13T06:28:00,axn,35.83
2024-02-13T06:29:00,axn,35.63
2024-02-13T06:30:00,axn,36.42
2024-02-13T06:31:00,axn,36.07
2024-02-13T06:32:00,axn,50.35
2024-02-13T06:33:00,axn,60.07
2024-02-13T06:34:00,axn,59.79
2024-02-13T06:35:00,axn,59.16
2024-02-13T06:36:00,axn,59.49
2024-02-13T06:37:00,axn,59.43
2024-02-13T06:38:00,axn,35.36
2024-02-13T06:39:00,axn,35.20
2024-02-13T06:40:00,axn,34.91
2024-02-13T06:41:00,axn,35.27
2024-02-13T06:42:00,axn,51.30
2024-02-13T06:43:00,axn,35.87
2024-02-13T06:44:00,axn,35.74
2024-02-13T06:45:00,axn,35.07
2024-02-13T06:46:00,axn,35.12
2024-02-13T06:47:00,axn,35.21
2024-02-13T06:48:00,axn,35.52
2024-02-13T06:49:00,axn,51.51
2024-02-13T06:50:00,axn,35.43
2024-02-13T06:51:00,axn,35.02
2024-02-13T06:52:00,axn,35.01
2024-02-13T06:53:00,axn,34.90
2024-02-13T06:54:00,axn,36.06
2024-02-13T06:55:00,axn,35.68
2024-02-13T06:56:00,axn,35.88
2024-02-13T06:57:00,axn,35.25
2024-02-13T06:58:00,axn,35.14
2024-02-13T06:59:00,axn,35.98
2024-02-13T07:00:00,axn,35.76
2024-02-13T07:01:00,axn,36.89
2024-02-13T07:02:00,axn,38.35
2024-02-13T07:03:00,axn,38.41
2024-02-13T07:04:00,axn,38.58
2024-02-13T07:05:00,axn,38.44
2024-02-13T07:06:00,axn,38.16
2024-02-13T07:07:00,axn,37.77
2024-02-13T07:08:00,axn,39.23
2024-02-13T07:09:00,axn,39.70
2024-02-13T07:10:00,axn,38.33
2024-02-13T07:11:00,axn,40.70
2024-02-13T07:12:00,axn,38.74
2024-02-13T07:13:00,axn,38.98
2024-02-13T07:14:00,axn,39.80
2024-02-13T07:15:00,axn,40.55
2024-02-13T07:16:00,axn,41.92
2024-02-13T07:17:00,axn,39.28
2024-02-13T07:18:00,axn,39.41
2024-02-13T07:19:00,axn,39.82
2024-02-13T07:20:00,axn,40.04
2024-02-13T07:21:00,axn,41.68
2024-02-13T07:22:00,axn,40.10
2024-02-13T07:23:00,axn,39.53
2024-02-13T07:24:00,axn,39.22
2024-02-13T07:25:00,axn,39.31
2024-02-13T07:26:00,axn,41.50
2024-02-13T07:27:00,axn,40.69
2024-02-13T07:28:00,axn,41.85
2024-02-13T07:29:00,axn,42.48
2024-02-13T07:30:00,axn,40.11
2024-02-13T07:31:00,axn,41.86
2024-02-13T07:32:00,axn,40.90
2024-02-13T07:33:00,axn,42.17
2024-02-13T07:34:00,axn,42.55
2024-02-13T07:35:00,axn,44.23
2024-02-13T07:36:00,axn,44.04
2024-02-13T07:37:00,axn,43.75
2024-02-13T07:38:00,axn,43.68
2024-02-13T07:39:00,axn,45.05
2024-02-13T07:40:00,axn,45.04
2024-02-13T07:41:00,axn,43.59
2024-02-13T07:42:00,axn,45.28
2024-02-13T07:43:00,axn,46.15
2024-02-13T07:44:00,axn,45.78
2024-02-13T07:45:00,axn,44.01
2024-02-13T07:46:00,axn,45.57
2024-02-13T07:47:00,axn,44.47
2024-02-13T07:48:00,axn,44.01
2024-02-13T07:49:00,axn,46.25
2024-02-13T07:50:00,axn,44.34
2024-02-13T07:51:00,axn,43.12
2024-02-13T07:52:00,axn,43.26
2024-02-13T07:53:00,axn,45.45
2024-02-13T07:54:00,axn,44.46
2024-02-13T07:55:00,axn,44.61
2024-02-13T07:56:00,axn,45.65
2024-02-13T07:57:00,axn,43.37
2024-02-13T07:58:00,axn,43.21
2024-02-13T07:59:00,axn,46.08
2024-02-13T08:00:00,axn,45.38
2024-02-13T08:01:00,axn,46.75
2024-02-13T08:02:00,axn,46.87
2024-02-13T08:03:00,axn,46.95
2024-02-13T08:04:00,axn,48.36
2024-02-13T08:05:00,axn,49.38
2024-02-13T08:06:00,axn,51.01
2024-02-13T08:07:00,axn,48.78
2024-02-13T08:08:00,axn,48.66
2024-02-13T08:09:00,axn,49.36
2024-02-13T08:10:00,axn,48.95
2024-02-13T08:11:00,axn,47.87
2024-02-13T08:12:00,axn,50.05
2024-02-13T08:13:00,axn,48.64
2024-02-13T08:14:00,axn,49.55
2024-02-13T08:15:00,axn,47.25
2024-02-13T08:16:00,axn,47.55
2024-02-13T08:17:00,axn,52.14
2024-02-13T08:18:00,axn,50.04
2024-02-13T08:19:00,axn,48.01
2024-02-13T08:20:00,axn,50.62
2024-02-13T08:21:00,axn,50.10
2024-02-13T08:22:00,axn,49.32
2024-02-13T08:23:00,axn,47.55
2024-02-13T08:24:00,axn,47.92
2024-02-13T08:25:00,axn,48.29
2024-02-13T08:26:00,axn,49.07
2024-02-13T08:27:00,axn,47.75
2024-02-13T08:28:00,axn,48.51
2024-02-13T08:29:00,axn,47.05
2024-02-13T08:30:00,axn,49.63
2024-02-13T08:31:00,axn,49.06
2024-02-13T08:32:00,axn,47.09
2024-02-13T08:33:00,axn,48.30
2024-02-13T08:34:00,axn,48.36
2024-02-13T08:35:00,axn,48.39
2024-02-13T08:36:00,axn,48.01
2024-02-13T08:37:00,axn,47.70
2024-02-13T08:38:00,axn,49.01
2024-02-13T08:39:00,axn,46.88
2024-02-13T08:40:00,axn,48.22
2024-02-13T08:41:00,axn,47.50
2024-02-13T08:42:00,axn,49.97
2024-02-13T08:43:00,axn,50.72
2024-02-13T08:44:00,axn,47.78
2024-02-13T08:45:00,axn,49.68
2024-02-13T08:46:00,axn,49.79
2024-02-13T08:47:00,axn,48.18
2024-02-13T08:48:00,axn,46.67
2024-02-13T08:49:00,axn,47.05
2024-02-13T08:50:00,axn,47.10
2024-02-13T08:51:00,axn,46.78
2024-02-13T08:52:00,axn,48.04
2024-02-13T08:53:00,axn,46.30
2024-02-13T08:54:00,axn,48.27
2024-02-13T08:55:00,axn,47.62
2024-02-13T08:56:00,axn,48.95
2024-02-13T08:57:00,axn,49.16
2024-02-13T08:58:00,axn,49.51
2024-02-13T08:59:00,axn,49.95
2024-02-13T09:00:00,axn,49.88
2024-02-13T09:01:00,axn,49.11
2024-02-13T09:02:00,axn,50.47
2024-02-13T09:03:00,axn,49.09
2024-02-13T09:04:00,axn,50.07
2024-02-13T09:05:00,axn,49.65
2024-02-13T09:06:00,axn,48.95
2024-02-13T09:07:00,axn,47.58
2024-02-13T09:08:00,axn,50.41
2024-02-13T09:09:00,axn,46.96
2024-02-13T09:10:00,axn,50.42
2024-02-13T09:11:00,axn,61.82
2024-02-13T09:12:00,axn,48.36
2024-02-13T09:13:00,axn,47.60
2024-02-13T09:14:00,axn,47.64
2024-02-13T09:15:00,axn,47.36
2024-02-13T09:16:00,axn,47.51
2024-02-13T09:17:00,axn,47.44
2024-02-13T09:18:00,axn,47.40
2024-02-13T09:19:00,axn,47.68
2024-02-13T09:20:00,axn,47.23
2024-02-13T09:21:00,axn,47.88
2024-02-13T09:22:00,axn,49.86
2024-02-13T09:23:00,axn,48.54
2024-02-13T09:24:00,axn,49.67
2024-02-13T09:25:00,axn,49.77
2024-02-13T09:26:00,axn,50.57
2024-02-13T09:27:00,axn,49.77
2024-02-13T09:28:00,axn,50.02
2024-02-13T09:29:00,axn,49.30
2024-02-13T09:30:00,axn,48.92
2024-02-13T09:31:00,axn,51.86
2024-02-13T09:32:00,axn,47.58
2024-02-13T09:33:00,axn,47.73
2024-02-13T09:34:00,axn,49.58
2024-02-13T09:35:00,axn,47.59
2024-02-13T09:36:00,axn,47.09
2024-02-13T09:37:00,axn,50.28
2024-02-13T09:38:00,axn,46.69
2024-02-13T09:39:00,axn,47.02
2024-02-13T09:40:00,axn,47.33
2024-02-13T09:41:00,axn,49.19
2024-02-13T09:42:00,axn,55.76
2024-02-13T09:43:00,axn,56.32
2024-02-13T09:44:00,axn,47.34
2024-02-13T09:45:00,axn,46.99
2024-02-13T09:46:00,axn,50.68
2024-02-13T09:47:00,axn,47.54
2024-02-13T09:48:00,axn,47.89
2024-02-13T09:49:00,axn,49.84
2024-02-13T09:50:00,axn,47.64
2024-02-13T09:51:00,axn,49.70
2024-02-13T09:52:00,axn,49.53
2024-02-13T09:53:00,axn,49.46
2024-02-13T09:54:00,axn,49.54
2024-02-13T09:55:00,axn,49.50
2024-02-13T09:56:00,axn,47.62
2024-02-13T09:57:00,axn,48.20
2024-02-13T09:58:00,axn,50.13
2024-02-13T09:59:00,axn,49.58
2024-02-13T10:00:00,axn,48.37
2024-02-13T10:01:00,axn,48.65
2024-02-13T10:02:00,axn,50.34
2024-02-13T10:03:00,axn,48.16
2024-02-13T10:04:00,axn,48.14
2024-02-13T10:05:00,axn,48.21
2024-02-13T10:06:00,axn,48.56
2024-02-13T10:07:00,axn,55.91
2024-02-13T10:08:00,axn,51.14
2024-02-13T10:09:00,axn,48.13
2024-02-13T10:10:00,axn,47.94
2024-02-13T10:11:00,axn,51.86
2024-02-13T10:12:00,axn,50.60
2024-02-13T10:13:00,axn,49.26
2024-02-13T10:14:00,axn,48.60
2024-02-13T10:15:00,axn,47.82
2024-02-13T10:16:00,axn,61.87
2024-02-13T10:17:00,axn,50.45
2024-02-13T10:18:00,axn,50.68
2024-02-13T10:19:00,axn,61.04
2024-02-13T10:20:00,axn,61.14
2024-02-13T10:21:00,axn,60.27
2024-02-13T10:22:00,axn,59.88
2024-02-13T10:23:00,axn,57.88
2024-02-13T10:24:00,axn,48.96
2024-02-13T10:25:00,axn,48.11
2024-02-13T10:26:00,axn,48.42
2024-02-13T10:27:00,axn,50.63
2024-02-13T10:28:00,axn,47.82
2024-02-13T10:29:00,axn,47.88
2024-02-13T10:30:00,axn,48.15
2024-02-13T10:31:00,axn,48.56
2024-02-13T10:32:00,axn,49.56
2024-02-13T10:33:00,axn,49.76
2024-02-13T10:34:00,axn,50.45
2024-02-13T10:35:00,axn,50.36
2024-02-13T10:36:00,axn,51.06
2024-02-13T10:37:00,axn,49.45
2024-02-13T10:38:00,axn,50.64
2024-02-13T10:39:00,axn,48.58
2024-02-13T10:40:00,axn,49.18
2024-02-13T10:41:00,axn,50.94
2024-02-13T10:42:00,axn,50.41
2024-02-13T10:43:00,axn,51.25
2024-02-13T10:44:00,axn,50.12
2024-02-13T10:45:00,axn,49.04
2024-02-13T10:46:00,axn,52.63
2024-02-13T10:47:00,axn,66.64
2024-02-13T10:48:00,axn,64.10
2024-02-13T10:49:00,axn,64.58
2024-02-13T10:50:00,axn,66.67
2024-02-13T10:51:00,axn,64.45
2024-02-13T10:52:00,axn,50.84
2024-02-13T10:53:00,axn,49.33
2024-02-13T10:54:00,axn,50.57
2024-02-13T10:55:00,axn,49.52
2024-02-13T10:56:00,axn,50.54
2024-02-13T10:57:00,axn,50.13
2024-02-13T10:58:00,axn,49.54
2024-02-13T10:59:00,axn,50.13
2024-02-13T11:00:00,axn,50.00
2024-02-13T11:01:00,axn,50.97
2024-02-13T11:02:00,axn,50.01
2024-02-13T11:03:00,axn,55.83
2024-02-13T11:04:00,axn,56.37
2024-02-13T11:05:00,axn,57.01
2024-02-13T11:06:00,axn,67.17
2024-02-13T11:07:00,axn,51.96
2024-02-13T11:08:00,axn,52.22
2024-02-13T11:09:00,axn,50.04
2024-02-13T11:10:00,axn,51.18
2024-02-13T11:11:00,axn,53.91
2024-02-13T11:12:00,axn,69.64
2024-02-13T11:13:00,axn,50.32
2024-02-13T11:14:00,axn,49.87
2024-02-13T11:15:00,axn,52.91
2024-02-13T11:16:00,axn,50.98
2024-02-13T11:17:00,axn,49.98
2024-02-13T11:18:00,axn,52.61
2024-02-13T11:19:00,axn,52.50
2024-02-13T11:20:00,axn,51.28
2024-02-13T11:21:00,axn,50.35
2024-02-13T11:22:00,axn,54.07
2024-02-13T11:23:00,axn,50.35
2024-02-13T11:24:00,axn,50.80
2024-02-13T11:25:00,axn,51.36
2024-02-13T11:26:00,axn,50.83
2024-02-13T11:27:00,axn,51.12
2024-02-13T11:28:00,axn,50.63
2024-02-13T11:29:00,axn,53.97
2024-02-13T11:30:00,axn,53.51
2024-02-13T11:31:00,axn,50.52
2024-02-13T11:32:00,axn,51.21
2024-02-13T11:33:00,axn,49.77
2024-02-13T11:34:00,axn,51.30
2024-02-13T11:35:00,axn,49.65
2024-02-13T11:36:00,axn,50.53
2024-02-13T11:37:00,axn,49.95
2024-02-13T11:38:00,axn,49.06
2024-02-13T11:39:00,axn,49.72
2024-02-13T11:40:00,axn,49.08
2024-02-13T11:41:00,axn,59.38
2024-02-13T11:42:00,axn,59.78
2024-02-13T11:43:00,axn,57.95
2024-02-13T11:44:00,axn,58.38
2024-02-13T11:45:00,axn,58.47
2024-02-13T11:46:00,axn,57.98
2024-02-13T11:47:00,axn,57.46
2024-02-13T11:48:00,axn,59.64
2024-02-13T11:49:00,axn,58.85
2024-02-13T11:50:00,axn,57.43
2024-02-13T11:51:00,axn,60.26
2024-02-13T11:52:00,axn,57.68
2024-02-13T11:53:00,axn,62.65
2024-02-13T11:54:00,axn,61.35
2024-02-13T11:55:00,axn,61.40
2024-02-13T11:56:00,axn,63.57
2024-02-13T11:57:00,axn,61.80
2024-02-13T11:58:00,axn,57.73
2024-02-13T11:59:00,axn,57.74
2024-02-13T12:00:00,axn,57.04
2024-02-13T12:01:00,axn,57.70
2024-02-13T12:02:00,axn,57.43
2024-02-13T12:03:00,axn,57.47
2024-02-13T12:04:00,axn,57.57
2024-02-13T12:05:00,axn,57.04
2024-02-13T12:06:00,axn,57.98
2024-02-13T12:07:00,axn,59.07
2024-02-13T12:08:00,axn,60.09
2024-02-13T12:09:00,axn,57.55
2024-02-13T12:10:00,axn,57.37
2024-02-13T12:11:00,axn,59.30
2024-02-13T12:12:00,axn,59.23
2024-02-13T12:13:00,axn,57.65
2024-02-13T12:14:00,axn,59.27
2024-02-13T12:15:00,axn,57.38
2024-02-13T12:16:00,axn,59.21
2024-02-13T12:17:00,axn,59.05
2024-02-13T12:18:00,axn,59.09
2024-02-13T12:19:00,axn,60.70
2024-02-13T12:20:00,axn,58.93
2024-02-13T12:21:00,axn,57.62
2024-02-13T12:22:00,axn,60.75
2024-02-13T12:23:00,axn,60.22
2024-02-13T12:24:00,axn,58.73
2024-02-13T12:25:00,axn,60.72
2024-02-13T12:26:00,axn,58.92
2024-02-13T12:27:00,axn,60.22
2024-02-13T12:28:00,axn,60.28
2024-02-13T12:29:00,axn,59.15
2024-02-13T12:30:00,axn,60.42
2024-02-13T12:31:00,axn,57.66
2024-02-13T12:32:00,axn,57.86
2024-02-13T12:33:00,axn,58.71
2024-02-13T12:34:00,axn,57.88
2024-02-13T12:35:00,axn,58.09
2024-02-13T12:36:00,axn,58.97
2024-02-13T12:37:00,axn,57.86
2024-02-13T12:38:00,axn,57.88
2024-02-13T12:39:00,axn,57.95
2024-02-13T12:40:00,axn,58.74
2024-02-13T12:41:00,axn,59.48
2024-02-13T12:42:00,axn,61.67
2024-02-13T12:43:00,axn,58.89
2024-02-13T12:44:00,axn,61.86
2024-02-13T12:45:00,axn,63.38
2024-02-13T12:46:00,axn,64.55
2024-02-13T12:47:00,axn,60.80
2024-02-13T12:48:00,axn,60.68
2024-02-13T12:49:00,axn,60.98
2024-02-13T12:50:00,axn,57.90
2024-02-13T12:51:00,axn,62.05
2024-02-13T12:52:00,axn,60.28
2024-02-13T12:53:00,axn,60.86
2024-02-13T12:54:00,axn,60.11
2024-02-13T12:55:00,axn,62.10
2024-02-13T12:56:00,axn,60.93
2024-02-13T12:57:00,axn,60.99
2024-02-13T12:58:00,axn,59.77
2024-02-13T12:59:00,axn,60.85
2024-02-13T13:00:00,axn,61.10
2024-02-13T13:01:00,axn,58.69
2024-02-13T13:02:00,axn,61.05
2024-02-13T13:03:00,axn,58.51
2024-02-13T13:04:00,axn,58.66
2024-02-13T13:05:00,axn,59.75
2024-02-13T13:06:00,axn,58.28
2024-02-13T13:07:00,axn,57.94
2024-02-13T13:08:00,axn,59.53
2024-02-13T13:09:00,axn,59.57
2024-02-13T13:10:00,axn,59.11
2024-02-13T13:11:00,axn,59.08
2024-02-13T13:12:00,axn,59.35
2024-02-13T13:13:00,axn,59.27
2024-02-13T13:14:00,axn,58.42
2024-02-13T13:15:00,axn,59.26
2024-02-13T13:16:00,axn,58.79
2024-02-13T13:17:00,axn,61.06
2024-02-13T13:18:00,axn,67.91